Regional Weather Roundup
Issued by NWS

Home | Current Version | Previous Version | Text Only | Print | Product List | Glossary Off
Versions: 1 2 3 4 5 6 7 8 9 10 11 12 13 14 15 16 17 18 19 20 21 22 23 24 25 26 27 28 29 30 31 32 33 34 35 36 37 38 39 40 41 42 43 44 45 46 47 48 49 50

000
ASUS43 KMKX 181300
RWRWI

WISCONSIN REGIONAL WEATHER ROUNDUP
NATIONAL WEATHER SERVICE MILWAUKEE/SULLIVAN WI
800 AM CDT FRI APR 18 2014

NOTE: "FAIR" INDICATES FEW OR NO CLOUDS BELOW 12,000 FEET WITH NO
SIGNIFICANT WEATHER AND/OR OBSTRUCTIONS TO VISIBILITY.

WIZ001-002-006>008-014>016-023>028-181400-
NORTHWEST WISCONSIN

CITY           SKY/WX    TMP DP  RH WIND       PRES   REMARKS
SUPERIOR ARPT  CLOUDY    23  21  93 CALM      30.40R
ASHLAND        CLOUDY    24  22  91 SW3       30.40R
HAYWARD        CLOUDY    22  17  81 CALM      30.38R
SIREN          MOSUNNY   21  19  91 CALM      30.38R
RICE LAKE      CLOUDY    23  21  94 CALM      30.38R
LADYSMITH      CLOUDY    24  23  96 CALM      30.38R
EAU CLAIRE     NOT AVBL
MENOMONIE      PTSUNNY   28  26  95 CALM      30.38R FOG
NEW RICHMOND   CLOUDY    29  29  99 CALM      30.38R
OSCEOLA        CLOUDY    26  26 100 E5        30.39S WCI  20
$$

WIZ003>005-009-010-017-018-181400-
NORTH CENTRAL WISCONSIN

CITY           SKY/WX    TMP DP  RH WIND       PRES   REMARKS
WOODRUFF       SUNNY     26  22  85 CALM      30.32S
RHINELANDER    SUNNY     28  22  78 N3        30.33R
EAGLE RIVER    PTSUNNY   19  19  98 CALM      30.32R
LAND O LAKES   CLOUDY    27  26  98 CALM      30.32R
PHILLIPS       FOG      N/A N/A N/A CALM      30.34R VSB 3/4
TOMAHAWK       SUNNY     25  24  96 CALM      30.34R
MEDFORD        CLOUDY    28  24  87 CALM      30.34R
MERRILL        SUNNY     27  24  88 CALM      30.34R
$$

WIZ029-030-035-036-043>047-181400-
CENTRAL WISCONSIN

CITY           SKY/WX    TMP DP  RH WIND       PRES   REMARKS
WAUSAU         MOSUNNY   33  26  75 CALM      30.34R
MOSINEE        SUNNY     34  27  75 NW5       30.36R WCI  30
MARSHFIELD     SUNNY     33  27  78 NW7       30.35R WCI  27
STEVENS POINT  SUNNY     31  26  81 N3        30.36R
WAUPACA        SUNNY     36  27  69 N5        30.36S WCI  32
WAUTOMA        NOT AVBL
WISC RAPIDS    SUNNY     35  26  69 NW5       30.38R WCI  31
CAMP DOUGLAS   NOT AVBL
$$

WIZ011>013-019>022-031-037>040-048>050-181400-
NORTHEAST WISCONSIN

CITY           SKY/WX    TMP DP  RH WIND       PRES   REMARKS
ANTIGO         SUNNY     28  24  83 N3        30.33R
STURGEON BAY   CLOUDY    34  27  75 NW8       30.36R WCI  27
GREEN BAY      CLOUDY    36  26  67 N8        30.37R WCI  30
MANITOWOC      NOT AVBL
APPLETON       PTSUNNY   34  25  69 N6        30.36R WCI  29
CLINTONVILLE   CLOUDY    34  28  80 NW3       30.36R
OSHKOSH        CLOUDY    36  26  67 N8        30.35R WCI  30
$$

WIZ032>034-041-042-053>061-181400-
SOUTHWEST WISCONSIN

CITY           SKY/WX    TMP DP  RH WIND       PRES   REMARKS
LA CROSSE      CLOUDY    34  29  82 CALM      30.39R
SPARTA         NOT AVBL
VIROQUA        FAIR      32  29  89 NE3       30.35R
BOSCOBEL       SUNNY     34  31  88 CALM      30.38S FOG
PRAIRIE DU CHI SUNNY     30  28  92 CALM      30.37S FOG
PLATTEVILLE    FAIR      34  31  88 N8        30.36R WCI  27
$$

WIZ056-057-062-063-064-067-068-181400-
SOUTH CENTRAL WISCONSIN

CITY           SKY/WX    TMP DP  RH WIND       PRES   REMARKS
BARABOO/DELLS  SUNNY     33  28  81 N3        30.35R
LONE ROCK      NOT AVBL
WATERTOWN      SUNNY     35  30  84 N7        30.34R WCI  29
MADISON        SUNNY     35  31  85 N3        30.37R
MIDDLETON      FAIR      34  33  94 N5        30.36R WCI  30
MONROE         SUNNY     34  34 100 N8        30.33R WCI  27
JANESVILLE     SUNNY     37  32  81 CALM      30.34R
$$

WIZ051-052-058>065-066-070>072-181400-
SOUTHEAST WISCONSIN

CITY           SKY/WX    TMP DP  RH WIND       PRES   REMARKS
MILWAUKEE      PTSUNNY   40  33  76 N10       30.34R WCI  33
WAUKESHA       NOT AVBL
MILWAUKEE/TIMM CLOUDY    37  30  75 N7        30.34R WCI  32
RACINE         SUNNY     40  33  76 N13       30.34R WCI  32
BURLINGTON     SUNNY     35  32  90 N6        30.33R WCI  30
KENOSHA        SUNNY     39  34  82 N8        30.33R WCI  33
FOND DU LAC    CLOUDY    36  30  79 N5        30.35R WCI  32
SHEBOYGAN      CLOUDY    37  30  75 N8        30.35R WCI  31
WEST BEND      CLOUDY    36  30  80 N6        30.34R WCI  31
JUNEAU         SUNNY     33  29  86 N6        30.35R WCI  28
$$

LSZ147-162-181400-
LAKE SUPERIOR

STATION/POSITION TIME  TEMP    WIND        PRES    WAVE
                       AIR SEA DIR/SP/G            HT/PER
                 (UTC) (F)     (DEG/KT/KT) (MB)    (FT/S)
DEVILS ISLAND    1200   31     320/ 11/ 11 1029.7R
PORT WING        1200   23     160/  2/  3 1028.8R
SAXON HARBOR     1200          180/  2/  4 1028.1R
$$

LMZ867-665-643>646-181400-
LAKE MICHIGAN

STATION/POSITION TIME  TEMP    WIND        PRES    WAVE
                       AIR SEA DIR/SP/G            HT/PER
                 (UTC) (F)     (DEG/KT/KT) (MB)    (FT/S)
NORTHPORT PIER   1200   33     300/  3/  4 1027.4R
SISTER BAY       1223   34        CALM       N/A
KEWAUNEE LAKESHO 1200   35     350/  4/  8 1028.0R
SHEBOYGAN LAKESH 1200   38     350/ 12/ 13 1028.0R
PORT WASHINGTON  1240   39     350/  5/ 10 1028.1R
MILWAUKEE LAKESH 1200   38     340/  9/ 12   N/A
KENOSHA   LAKESH 1200   39     360/ 11/ 13   N/A
$$

TC  - TEMPERATURE IN CELSIUS
VSB - VISIBILITY IN STATUTE MILES
WCI - WIND CHILL INDEX
HX  - HEAT INDEX




USA.gov is the U.S. government's official web portal to all federal, state and local government web resources and services.